Year,Month,Day,Hour,Minute,Value (Times are PST for temperature in C)
2019,11,01,00,00,1.70
2019,11,01,00,01,1.70
2019,11,01,00,02,1.70
2019,11,01,00,03,1.70
2019,11,01,00,04,1.70
2019,11,01,00,05,1.70
2019,11,01,00,06,1.70
2019,11,01,00,07,1.70
2019,11,01,00,08,1.70
2019,11,01,00,09,1.70
2019,11,01,00,10,1.70
2019,11,01,00,11,1.60
2019,11,01,00,12,1.60
2019,11,01,00,13,1.60
2019,11,01,00,14,1.60
2019,11,01,00,15,1.60
2019,11,01,00,16,1.60
2019,11,01,00,17,1.60
2019,11,01,00,18,1.60
2019,11,01,00,19,1.60
2019,11,01,00,20,1.60
2019,11,01,00,21,1.60
2019,11,01,00,22,1.60
2019,11,01,00,23,1.60
2019,11,01,00,24,1.60
2019,11,01,00,25,1.50
2019,11,01,00,26,1.50
2019,11,01,00,27,1.50
2019,11,01,00,28,1.50
2019,11,01,00,29,1.60
2019,11,01,00,30,1.60
2019,11,01,00,31,1.60
2019,11,01,00,32,1.60
2019,11,01,00,33,1.60
2019,11,01,00,34,1.70
2019,11,01,00,35,1.70
2019,11,01,00,36,1.70
2019,11,01,00,37,1.80
2019,11,01,00,38,1.80
2019,11,01,00,39,1.80
2019,11,01,00,40,1.80
2019,11,01,00,41,1.80
2019,11,01,00,42,1.80
2019,11,01,00,43,1.80
2019,11,01,00,44,1.80
2019,11,01,00,45,1.80
2019,11,01,00,46,1.80
2019,11,01,00,47,1.80
2019,11,01,00,48,1.80
2019,11,01,00,49,1.80
2019,11,01,00,50,1.80
2019,11,01,00,51,1.80
2019,11,01,00,52,1.80
2019,11,01,00,53,1.80
2019,11,01,00,54,1.70
2019,11,01,00,55,1.70
2019,11,01,00,56,1.70
2019,11,01,00,57,1.70
2019,11,01,00,58,1.70
2019,11,01,00,59,1.70
2019,11,01,01,00,1.70
2019,11,01,01,01,1.70
2019,11,01,01,02,1.70
2019,11,01,01,03,1.70
2019,11,01,01,04,1.70
2019,11,01,01,05,1.70
2019,11,01,01,06,1.70
2019,11,01,01,07,1.70
2019,11,01,01,08,1.70
2019,11,01,01,09,1.80
2019,11,01,01,10,1.80
2019,11,01,01,11,1.80
2019,11,01,01,12,1.90
2019,11,01,01,13,1.90
2019,11,01,01,14,1.90
2019,11,01,01,15,2.00
2019,11,01,01,16,2.00
2019,11,01,01,17,2.00
2019,11,01,01,18,2.10
2019,11,01,01,19,2.10
2019,11,01,01,20,2.10
2019,11,01,01,21,2.10
2019,11,01,01,22,2.10
2019,11,01,01,23,2.10
2019,11,01,01,24,2.10
2019,11,01,01,25,2.10
2019,11,01,01,26,2.10
2019,11,01,01,27,2.20
2019,11,01,01,28,2.20
2019,11,01,01,29,2.10
2019,11,01,01,30,2.10
2019,11,01,01,31,2.10
2019,11,01,01,32,2.10
2019,11,01,01,33,2.10
2019,11,01,01,34,2.10
2019,11,01,01,35,2.10
2019,11,01,01,36,2.10
2019,11,01,01,37,2.10
2019,11,01,01,38,2.10
2019,11,01,01,39,2.10
2019,11,01,01,40,2.10
2019,11,01,01,41,2.10
2019,11,01,01,42,2.00
2019,11,01,01,43,2.00
2019,11,01,01,44,2.00
2019,11,01,01,45,2.00
2019,11,01,01,46,2.00
2019,11,01,01,47,2.00
2019,11,01,01,48,2.00
2019,11,01,01,49,2.00
2019,11,01,01,50,2.00
2019,11,01,01,51,2.00
2019,11,01,01,52,2.00
2019,11,01,01,53,2.00
2019,11,01,01,54,2.00
2019,11,01,01,55,2.00
2019,11,01,01,56,2.00
2019,11,01,01,57,2.00
2019,11,01,01,58,2.00
2019,11,01,01,59,2.00
2019,11,01,02,00,2.00
2019,11,01,02,01,1.90
2019,11,01,02,02,1.90
2019,11,01,02,03,1.90
2019,11,01,02,04,1.90
2019,11,01,02,05,1.90
2019,11,01,02,06,1.90
2019,11,01,02,07,1.90
2019,11,01,02,08,1.90
2019,11,01,02,09,1.90
2019,11,01,02,10,1.90
2019,11,01,02,11,1.90
2019,11,01,02,12,1.90
2019,11,01,02,13,1.90
2019,11,01,02,14,1.90
2019,11,01,02,15,1.90
2019,11,01,02,16,1.90
2019,11,01,02,17,2.00
2019,11,01,02,18,2.00
2019,11,01,02,19,2.00
2019,11,01,02,20,2.00
2019,11,01,02,21,2.00
2019,11,01,02,22,2.00
2019,11,01,02,23,2.00
2019,11,01,02,24,2.00
2019,11,01,02,25,2.00
2019,11,01,02,26,2.00
2019,11,01,02,27,2.00
2019,11,01,02,28,2.00
2019,11,01,02,29,2.00
2019,11,01,02,30,2.00
2019,11,01,02,31,2.00
2019,11,01,02,32,1.90
2019,11,01,02,33,1.90
2019,11,01,02,34,1.90
2019,11,01,02,35,1.90
2019,11,01,02,36,1.90
2019,11,01,02,37,1.90
2019,11,01,02,38,1.90
2019,11,01,02,39,1.90
2019,11,01,02,40,1.90
2019,11,01,02,41,1.90
2019,11,01,02,42,1.90
2019,11,01,02,43,1.90
2019,11,01,02,44,1.90
2019,11,01,02,45,1.90
2019,11,01,02,46,1.90
2019,11,01,02,47,1.90
2019,11,01,02,48,1.90
2019,11,01,02,49,1.90
2019,11,01,02,50,1.90
2019,11,01,02,51,1.90
2019,11,01,02,52,1.90
2019,11,01,02,53,1.90
2019,11,01,02,54,1.90
2019,11,01,02,55,1.90
2019,11,01,02,56,1.90
2019,11,01,02,57,1.90
2019,11,01,02,58,1.90
2019,11,01,02,59,1.90
2019,11,01,03,00,1.90
2019,11,01,03,01,1.90
2019,11,01,03,02,1.90
2019,11,01,03,03,1.90
2019,11,01,03,04,1.90
2019,11,01,03,05,1.90
2019,11,01,03,06,1.90
2019,11,01,03,07,1.90
2019,11,01,03,08,2.00
2019,11,01,03,09,2.00
2019,11,01,03,10,2.00
2019,11,01,03,11,2.00
2019,11,01,03,12,2.00
2019,11,01,03,13,2.00
2019,11,01,03,14,2.00
2019,11,01,03,15,2.00
2019,11,01,03,16,1.90
2019,11,01,03,17,1.90
2019,11,01,03,18,1.90
2019,11,01,03,19,1.90
2019,11,01,03,20,1.90
2019,11,01,03,21,1.90
2019,11,01,03,22,1.90
2019,11,01,03,23,1.90
2019,11,01,03,24,1.80
2019,11,01,03,25,1.80
2019,11,01,03,26,1.80
2019,11,01,03,27,1.80
2019,11,01,03,28,1.80
2019,11,01,03,29,1.80
2019,11,01,03,30,1.80
2019,11,01,03,31,1.70
2019,11,01,03,32,1.70
2019,11,01,03,33,1.70
2019,11,01,03,34,1.70
2019,11,01,03,35,1.70
2019,11,01,03,36,1.70
2019,11,01,03,37,1.70
2019,11,01,03,38,1.70
2019,11,01,03,39,1.70
2019,11,01,03,40,1.70
2019,11,01,03,41,1.70
2019,11,01,03,42,1.70
2019,11,01,03,43,1.70
2019,11,01,03,44,1.70
2019,11,01,03,45,1.70
2019,11,01,03,46,1.70
2019,11,01,03,47,1.70
2019,11,01,03,48,1.70
2019,11,01,03,49,1.70
2019,11,01,03,50,1.70
2019,11,01,03,51,1.70
2019,11,01,03,52,1.70
2019,11,01,03,53,1.70
2019,11,01,03,54,1.70
2019,11,01,03,55,1.70
2019,11,01,03,56,1.70
2019,11,01,03,57,1.70
2019,11,01,03,58,1.70
2019,11,01,03,59,1.70
2019,11,01,04,00,1.70
2019,11,01,04,01,1.70
2019,11,01,04,02,1.70
2019,11,01,04,03,1.70
2019,11,01,04,04,1.60
2019,11,01,04,05,1.60
2019,11,01,04,06,1.60
2019,11,01,04,07,1.60
2019,11,01,04,08,1.60
2019,11,01,04,09,1.60
2019,11,01,04,10,1.60
2019,11,01,04,11,1.60
2019,11,01,04,12,1.60
2019,11,01,04,13,1.50
2019,11,01,04,14,1.50
2019,11,01,04,15,1.50
2019,11,01,04,16,1.50
2019,11,01,04,17,1.50
2019,11,01,04,18,1.50
2019,11,01,04,19,1.40
2019,11,01,04,20,1.40
2019,11,01,04,21,1.40
2019,11,01,04,22,1.40
2019,11,01,04,23,1.40
2019,11,01,04,24,1.40
2019,11,01,04,25,1.40
2019,11,01,04,26,1.40
2019,11,01,04,27,1.40
2019,11,01,04,28,1.50
2019,11,01,04,29,1.50
2019,11,01,04,30,1.50
2019,11,01,04,31,1.50
2019,11,01,04,32,1.50
2019,11,01,04,33,1.60
2019,11,01,04,34,1.60
2019,11,01,04,35,1.60
2019,11,01,04,36,1.60
2019,11,01,04,37,1.60
2019,11,01,04,38,1.60
2019,11,01,04,39,1.60
2019,11,01,04,40,1.60
2019,11,01,04,41,1.60
2019,11,01,04,42,1.60
2019,11,01,04,43,1.60
2019,11,01,04,44,1.60
2019,11,01,04,45,1.60
2019,11,01,04,46,1.60
2019,11,01,04,47,1.50
2019,11,01,04,48,1.50
2019,11,01,04,49,1.50
2019,11,01,04,50,1.50
2019,11,01,04,51,1.50
2019,11,01,04,52,1.50
2019,11,01,04,53,1.50
2019,11,01,04,54,1.50
2019,11,01,04,55,1.40
2019,11,01,04,56,1.40
2019,11,01,04,57,1.40
2019,11,01,04,58,1.40
2019,11,01,04,59,1.40
2019,11,01,05,00,1.40
2019,11,01,05,01,1.40
2019,11,01,05,02,1.40
2019,11,01,05,03,1.30
2019,11,01,05,04,1.30
2019,11,01,05,05,1.30
2019,11,01,05,06,1.30
2019,11,01,05,07,1.30
2019,11,01,05,08,1.30
2019,11,01,05,09,1.30
2019,11,01,05,10,1.30
2019,11,01,05,11,1.30
2019,11,01,05,12,1.30
2019,11,01,05,13,1.30
2019,11,01,05,14,1.30
2019,11,01,05,15,1.30
2019,11,01,05,16,1.30
2019,11,01,05,17,1.30
2019,11,01,05,18,1.20
2019,11,01,05,19,1.20
2019,11,01,05,20,1.20
2019,11,01,05,21,1.20
2019,11,01,05,22,1.20
2019,11,01,05,23,1.20
2019,11,01,05,24,1.20
2019,11,01,05,25,1.20
2019,11,01,05,26,1.20
2019,11,01,05,27,1.20
2019,11,01,05,28,1.20
2019,11,01,05,29,1.20
2019,11,01,05,30,1.20
2019,11,01,05,31,1.20
2019,11,01,05,32,1.20
2019,11,01,05,33,1.20
2019,11,01,05,34,1.20
2019,11,01,05,35,1.20
2019,11,01,05,36,1.20
2019,11,01,05,37,1.20
2019,11,01,05,38,1.10
2019,11,01,05,39,1.20
2019,11,01,05,40,1.20
2019,11,01,05,41,1.20
2019,11,01,05,42,1.20
2019,11,01,05,43,1.20
2019,11,01,05,44,1.20
2019,11,01,05,45,1.20
2019,11,01,05,46,1.20
2019,11,01,05,47,1.10
2019,11,01,05,48,1.20
2019,11,01,05,49,1.20
2019,11,01,05,50,1.20
2019,11,01,05,51,1.20
2019,11,01,05,52,1.20
2019,11,01,05,53,1.20
2019,11,01,05,54,1.20
2019,11,01,05,55,1.20
2019,11,01,05,56,1.20
2019,11,01,05,57,1.20
2019,11,01,05,58,1.20
2019,11,01,05,59,1.20
2019,11,01,06,00,1.20
2019,11,01,06,01,1.30
2019,11,01,06,02,1.30
2019,11,01,06,03,1.30
2019,11,01,06,04,1.30
2019,11,01,06,05,1.30
2019,11,01,06,06,1.30
2019,11,01,06,07,1.30
2019,11,01,06,08,1.30
2019,11,01,06,09,1.40
2019,11,01,06,10,1.40
2019,11,01,06,11,1.40
2019,11,01,06,12,1.40
2019,11,01,06,13,1.40
2019,11,01,06,14,1.40
2019,11,01,06,15,1.50
2019,11,01,06,16,1.50
2019,11,01,06,17,1.50
2019,11,01,06,18,1.50
2019,11,01,06,19,1.50
2019,11,01,06,20,1.60
2019,11,01,06,21,1.60
2019,11,01,06,22,1.60
2019,11,01,06,23,1.60
2019,11,01,06,24,1.60
2019,11,01,06,25,1.60
2019,11,01,06,26,1.70
2019,11,01,06,27,1.70
2019,11,01,06,28,1.70
2019,11,01,06,29,1.70
2019,11,01,06,30,1.70
2019,11,01,06,31,1.70
2019,11,01,06,32,1.70
2019,11,01,06,33,1.70
2019,11,01,06,34,1.80
2019,11,01,06,35,1.80
2019,11,01,06,36,1.80
2019,11,01,06,37,1.80
2019,11,01,06,38,1.80
2019,11,01,06,39,1.90
2019,11,01,06,40,1.90
2019,11,01,06,41,1.90
2019,11,01,06,42,1.90
2019,11,01,06,43,1.90
2019,11,01,06,44,1.90
2019,11,01,06,45,2.00
2019,11,01,06,46,2.00
2019,11,01,06,47,2.10
2019,11,01,06,48,2.10
2019,11,01,06,49,2.10
2019,11,01,06,50,2.20
2019,11,01,06,51,2.20
2019,11,01,06,52,2.20
2019,11,01,06,53,2.20
2019,11,01,06,54,2.20
2019,11,01,06,55,2.30
2019,11,01,06,56,2.30
2019,11,01,06,57,2.30
2019,11,01,06,58,2.30
2019,11,01,06,59,2.30
2019,11,01,07,00,2.30
2019,11,01,07,01,2.30
2019,11,01,07,02,2.40
2019,11,01,07,03,2.40
2019,11,01,07,04,2.40
2019,11,01,07,05,2.40
2019,11,01,07,06,2.40
2019,11,01,07,07,2.40
2019,11,01,07,08,2.50
2019,11,01,07,09,2.50
2019,11,01,07,10,2.50
2019,11,01,07,11,2.50
2019,11,01,07,12,2.60
2019,11,01,07,13,2.60
2019,11,01,07,14,2.60
2019,11,01,07,15,2.60
2019,11,01,07,16,2.60
2019,11,01,07,17,2.70
2019,11,01,07,18,2.70
2019,11,01,07,19,2.70
2019,11,01,07,20,2.70
2019,11,01,07,21,2.70
2019,11,01,07,22,2.70
2019,11,01,07,23,2.70
2019,11,01,07,24,2.80
2019,11,01,07,25,2.80
2019,11,01,07,26,2.80
2019,11,01,07,27,2.80
2019,11,01,07,28,2.90
2019,11,01,07,29,2.90
2019,11,01,07,30,2.90
2019,11,01,07,31,2.90
2019,11,01,07,32,3.00
2019,11,01,07,33,3.00
2019,11,01,07,34,3.10
2019,11,01,07,35,3.10
2019,11,01,07,36,3.10
2019,11,01,07,37,3.20
2019,11,01,07,38,3.20
2019,11,01,07,39,3.20
2019,11,01,07,40,3.30
2019,11,01,07,41,3.30
2019,11,01,07,42,3.30
2019,11,01,07,43,3.30
2019,11,01,07,44,3.30
2019,11,01,07,45,3.40
2019,11,01,07,46,3.40
2019,11,01,07,47,3.40
2019,11,01,07,48,3.40
2019,11,01,07,49,3.40
2019,11,01,07,50,3.50
2019,11,01,07,51,3.50
2019,11,01,07,52,3.50
2019,11,01,07,53,3.60
2019,11,01,07,54,3.60
2019,11,01,07,55,3.60
2019,11,01,07,56,3.60
2019,11,01,07,57,3.60
2019,11,01,07,58,3.60
2019,11,01,07,59,3.60
2019,11,01,08,00,3.60
2019,11,01,08,01,3.70
2019,11,01,08,02,3.70
2019,11,01,08,03,3.80
2019,11,01,08,04,3.80
2019,11,01,08,05,3.80
2019,11,01,08,06,3.90
2019,11,01,08,07,3.90
2019,11,01,08,08,3.90
2019,11,01,08,09,4.00
2019,11,01,08,10,4.00
2019,11,01,08,11,4.00
2019,11,01,08,12,4.10
2019,11,01,08,13,4.10
2019,11,01,08,14,4.10
2019,11,01,08,15,4.20
2019,11,01,08,16,4.20
2019,11,01,08,17,4.20
2019,11,01,08,18,4.20
2019,11,01,08,19,4.30
2019,11,01,08,20,4.30
2019,11,01,08,21,4.30
2019,11,01,08,22,4.30
2019,11,01,08,23,4.40
2019,11,01,08,24,4.40
2019,11,01,08,25,4.40
2019,11,01,08,26,4.40
2019,11,01,08,27,4.50
2019,11,01,08,28,4.50
2019,11,01,08,29,4.50
2019,11,01,08,30,4.50
2019,11,01,08,31,4.60
2019,11,01,08,32,4.60
2019,11,01,08,33,4.60
2019,11,01,08,34,4.70
2019,11,01,08,35,4.70
2019,11,01,08,36,4.70
2019,11,01,08,37,4.80
2019,11,01,08,38,4.80
2019,11,01,08,39,4.90
2019,11,01,08,40,4.90
2019,11,01,08,41,5.00
2019,11,01,08,42,5.00
2019,11,01,08,43,5.10
2019,11,01,08,44,5.10
2019,11,01,08,45,5.10
2019,11,01,08,46,5.10
2019,11,01,08,47,5.10
2019,11,01,08,48,5.20
2019,11,01,08,49,5.20
2019,11,01,08,50,5.20
2019,11,01,08,51,5.20
2019,11,01,08,52,5.30
2019,11,01,08,53,5.30
2019,11,01,08,54,5.30
2019,11,01,08,55,5.40
2019,11,01,08,56,5.40
2019,11,01,08,57,5.40
2019,11,01,08,58,5.50
2019,11,01,08,59,5.50
2019,11,01,09,00,5.50
2019,11,01,09,01,5.60
2019,11,01,09,02,5.60
2019,11,01,09,03,5.70
2019,11,01,09,04,5.70
2019,11,01,09,05,5.70
2019,11,01,09,06,5.80
2019,11,01,09,07,5.80
2019,11,01,09,08,5.80
2019,11,01,09,09,5.90
2019,11,01,09,10,5.90
2019,11,01,09,11,5.90
2019,11,01,09,12,6.00
2019,11,01,09,13,6.00
2019,11,01,09,14,6.10
2019,11,01,09,15,6.10
2019,11,01,09,16,6.20
2019,11,01,09,17,6.20
2019,11,01,09,18,6.20
2019,11,01,09,19,6.30
2019,11,01,09,20,6.30
2019,11,01,09,21,6.40
2019,11,01,09,22,6.40
2019,11,01,09,23,6.40
2019,11,01,09,24,6.40
2019,11,01,09,25,6.50
2019,11,01,09,26,6.50
2019,11,01,09,27,6.60
2019,11,01,09,28,6.60
2019,11,01,09,29,6.60
2019,11,01,09,30,6.70
2019,11,01,09,31,6.70
2019,11,01,09,32,6.70
2019,11,01,09,33,6.80
2019,11,01,09,34,6.80
2019,11,01,09,35,6.80
2019,11,01,09,36,6.90
2019,11,01,09,37,6.90
2019,11,01,09,38,6.90
2019,11,01,09,39,7.00
2019,11,01,09,40,7.00
2019,11,01,09,41,7.00
2019,11,01,09,42,7.10
2019,11,01,09,43,7.10
2019,11,01,09,44,7.10
2019,11,01,09,45,7.10
2019,11,01,09,46,7.20
2019,11,01,09,47,7.20
2019,11,01,09,48,7.20
2019,11,01,09,49,7.20
2019,11,01,09,50,7.20
2019,11,01,09,51,7.20
2019,11,01,09,52,7.20
2019,11,01,09,53,7.20
2019,11,01,09,54,7.20
2019,11,01,09,55,7.20
2019,11,01,09,56,7.30
2019,11,01,09,57,7.30
2019,11,01,09,58,7.30
2019,11,01,09,59,7.30
2019,11,01,10,00,7.30
2019,11,01,10,01,7.30
2019,11,01,10,02,7.30
2019,11,01,10,03,7.30
2019,11,01,10,04,7.30
2019,11,01,10,05,7.30
2019,11,01,10,06,7.30
2019,11,01,10,07,7.30
2019,11,01,10,08,7.30
2019,11,01,10,09,7.30
2019,11,01,10,10,7.20
2019,11,01,10,11,7.20
2019,11,01,10,12,7.20
2019,11,01,10,13,7.20
2019,11,01,10,14,7.20
2019,11,01,10,15,7.20
2019,11,01,10,16,7.20
2019,11,01,10,17,7.20
2019,11,01,10,18,7.20
2019,11,01,10,19,7.20
2019,11,01,10,20,7.20
2019,11,01,10,21,7.20
2019,11,01,10,22,7.20
2019,11,01,10,23,7.20
2019,11,01,10,24,7.20
2019,11,01,10,25,7.30
2019,11,01,10,26,7.30
2019,11,01,10,27,7.30
2019,11,01,10,28,7.30
2019,11,01,10,29,7.30
2019,11,01,10,30,7.40
2019,11,01,10,31,7.40
2019,11,01,10,32,7.40
2019,11,01,10,33,7.40
2019,11,01,10,34,7.40
2019,11,01,10,35,7.40
2019,11,01,10,36,7.40
2019,11,01,10,37,7.40
2019,11,01,10,38,7.40
2019,11,01,10,39,7.40
2019,11,01,10,40,7.40
2019,11,01,10,41,7.40
2019,11,01,10,42,7.40
2019,11,01,10,43,7.40
2019,11,01,10,44,7.40
2019,11,01,10,45,7.40
2019,11,01,10,46,7.40
2019,11,01,10,47,7.40
2019,11,01,10,48,7.40
2019,11,01,10,49,7.40
2019,11,01,10,50,7.40
2019,11,01,10,51,7.40
2019,11,01,10,52,7.40
2019,11,01,10,53,7.40
2019,11,01,10,54,7.40
2019,11,01,10,55,7.40
2019,11,01,10,56,7.40
2019,11,01,10,57,7.50
2019,11,01,10,58,7.50
2019,11,01,10,59,7.50
2019,11,01,11,00,7.50
2019,11,01,11,01,7.40
2019,11,01,11,02,7.40
2019,11,01,11,03,7.40
2019,11,01,11,04,7.40
2019,11,01,11,05,7.40
2019,11,01,11,06,7.40
2019,11,01,11,07,7.40
2019,11,01,11,08,7.40
2019,11,01,11,09,7.40
2019,11,01,11,10,7.40
2019,11,01,11,11,7.40
2019,11,01,11,12,7.40
2019,11,01,11,13,7.40
2019,11,01,11,14,7.40
2019,11,01,11,15,7.40
2019,11,01,11,16,7.40
2019,11,01,11,17,7.30
2019,11,01,11,18,7.30
2019,11,01,11,19,7.30
2019,11,01,11,20,7.30
2019,11,01,11,21,7.30
2019,11,01,11,22,7.30
2019,11,01,11,23,7.30
2019,11,01,11,24,7.30
2019,11,01,11,25,7.40
2019,11,01,11,26,7.40
2019,11,01,11,27,7.40
2019,11,01,11,28,7.40
2019,11,01,11,29,7.40
2019,11,01,11,30,7.40
2019,11,01,11,31,7.40
2019,11,01,11,32,7.40
2019,11,01,11,33,7.40
2019,11,01,11,34,7.40
2019,11,01,11,35,7.40
2019,11,01,11,36,7.40
2019,11,01,11,37,7.30
2019,11,01,11,38,7.30
2019,11,01,11,39,7.30
2019,11,01,11,40,7.30
2019,11,01,11,41,7.40
2019,11,01,11,42,7.40
2019,11,01,11,43,7.40
2019,11,01,11,44,7.50
2019,11,01,11,45,7.50
2019,11,01,11,46,7.50
2019,11,01,11,47,7.50
2019,11,01,11,48,7.50
2019,11,01,11,49,7.50
2019,11,01,11,50,7.60
2019,11,01,11,51,7.60
2019,11,01,11,52,7.70
2019,11,01,11,53,7.70
2019,11,01,11,54,7.80
2019,11,01,11,55,7.80
2019,11,01,11,56,7.90
2019,11,01,11,57,7.90
2019,11,01,11,58,8.00
2019,11,01,11,59,8.10
2019,11,01,12,00,8.10
2019,11,01,12,01,8.10
2019,11,01,12,02,8.10
2019,11,01,12,03,8.20
2019,11,01,12,04,8.20
2019,11,01,12,05,8.30
2019,11,01,12,06,8.30
2019,11,01,12,07,8.40
2019,11,01,12,08,8.50
2019,11,01,12,09,8.50
2019,11,01,12,10,8.50
2019,11,01,12,11,8.60
2019,11,01,12,12,8.60
2019,11,01,12,13,8.70
2019,11,01,12,14,8.70
2019,11,01,12,15,8.80
2019,11,01,12,16,8.80
2019,11,01,12,17,8.90
2019,11,01,12,18,9.00
2019,11,01,12,19,9.00
2019,11,01,12,20,9.00
2019,11,01,12,21,9.10
2019,11,01,12,22,9.10
2019,11,01,12,23,9.20
2019,11,01,12,24,9.20
2019,11,01,12,25,9.30
2019,11,01,12,26,9.30
2019,11,01,12,27,9.40
2019,11,01,12,28,9.40
2019,11,01,12,29,9.50
2019,11,01,12,30,9.50
2019,11,01,12,31,9.60
2019,11,01,12,32,9.60
2019,11,01,12,33,9.60
2019,11,01,12,34,9.60
2019,11,01,12,35,9.60
2019,11,01,12,36,9.60
2019,11,01,12,37,9.60
2019,11,01,12,38,9.60
2019,11,01,12,39,9.60
2019,11,01,12,40,9.60
2019,11,01,12,41,9.60
2019,11,01,12,42,9.60
2019,11,01,12,43,9.50
2019,11,01,12,44,9.50
2019,11,01,12,45,9.50
2019,11,01,12,46,9.50
2019,11,01,12,47,9.50
2019,11,01,12,48,9.60
2019,11,01,12,49,9.60
2019,11,01,12,50,9.60
2019,11,01,12,51,9.70
2019,11,01,12,52,9.70
2019,11,01,12,53,9.70
2019,11,01,12,54,9.80
2019,11,01,12,55,9.80
2019,11,01,12,56,9.90
2019,11,01,12,57,9.90
2019,11,01,12,58,9.90
2019,11,01,12,59,9.90
2019,11,01,13,00,9.90
2019,11,01,13,01,9.90
2019,11,01,13,02,10.00
2019,11,01,13,03,10.00
2019,11,01,13,04,10.00
2019,11,01,13,05,10.10
2019,11,01,13,06,10.10
2019,11,01,13,07,10.10
2019,11,01,13,08,10.10
2019,11,01,13,09,10.20
2019,11,01,13,10,10.20
2019,11,01,13,11,10.20
2019,11,01,13,12,10.20
2019,11,01,13,13,10.20
2019,11,01,13,14,10.20
2019,11,01,13,15,10.20
2019,11,01,13,16,10.20
2019,11,01,13,17,10.30
2019,11,01,13,18,10.30
2019,11,01,13,19,10.30
2019,11,01,13,20,10.30
2019,11,01,13,21,10.30
2019,11,01,13,22,10.30
2019,11,01,13,23,10.30
2019,11,01,13,24,10.30
2019,11,01,13,25,10.30
2019,11,01,13,26,10.30
2019,11,01,13,27,10.30
2019,11,01,13,28,10.30
2019,11,01,13,29,10.30
2019,11,01,13,30,10.40
2019,11,01,13,31,10.40
2019,11,01,13,32,10.40
2019,11,01,13,33,10.50
2019,11,01,13,34,10.50
2019,11,01,13,35,10.60
2019,11,01,13,36,10.60
2019,11,01,13,37,10.60
2019,11,01,13,38,10.60
2019,11,01,13,39,10.60
2019,11,01,13,40,10.60
2019,11,01,13,41,10.50
2019,11,01,13,42,10.50
2019,11,01,13,43,10.50
2019,11,01,13,44,10.50
2019,11,01,13,45,10.40
2019,11,01,13,46,10.40
2019,11,01,13,47,10.40
2019,11,01,13,48,10.30
2019,11,01,13,49,10.30
2019,11,01,13,50,10.30
2019,11,01,13,51,10.20
2019,11,01,13,52,10.20
2019,11,01,13,53,10.20
2019,11,01,13,54,10.20
2019,11,01,13,55,10.20
2019,11,01,13,56,10.20
2019,11,01,13,57,10.10
2019,11,01,13,58,10.10
2019,11,01,13,59,10.10
2019,11,01,14,00,10.10
2019,11,01,14,01,10.10
2019,11,01,14,02,10.10
2019,11,01,14,03,10.10
2019,11,01,14,04,10.10
2019,11,01,14,05,10.10
2019,11,01,14,06,10.10
2019,11,01,14,07,10.10
2019,11,01,14,08,10.10
2019,11,01,14,09,10.10
2019,11,01,14,10,10.10
2019,11,01,14,11,10.10
2019,11,01,14,12,10.20
2019,11,01,14,13,10.20
2019,11,01,14,14,10.20
2019,11,01,14,15,10.20
2019,11,01,14,16,10.30
2019,11,01,14,17,10.30
2019,11,01,14,18,10.30
2019,11,01,14,19,10.30
2019,11,01,14,20,10.30
2019,11,01,14,21,10.30
2019,11,01,14,22,10.30
2019,11,01,14,23,10.30
2019,11,01,14,24,10.30
2019,11,01,14,25,10.30
2019,11,01,14,26,10.30
2019,11,01,14,27,10.30
2019,11,01,14,28,10.30
2019,11,01,14,29,10.30
2019,11,01,14,30,10.30
2019,11,01,14,31,10.30
2019,11,01,14,32,10.30
2019,11,01,14,33,10.30
2019,11,01,14,34,10.20
2019,11,01,14,35,10.20
2019,11,01,14,36,10.20
2019,11,01,14,37,10.10
2019,11,01,14,38,10.10
2019,11,01,14,39,10.10
2019,11,01,14,40,10.00
2019,11,01,14,41,9.90
2019,11,01,14,42,9.90
2019,11,01,14,43,9.90
2019,11,01,14,44,9.80
2019,11,01,14,45,9.80
2019,11,01,14,46,9.80
2019,11,01,14,47,9.80
2019,11,01,14,48,9.80
2019,11,01,14,49,9.80
2019,11,01,14,50,9.80
2019,11,01,14,51,9.80
2019,11,01,14,52,9.80
2019,11,01,14,53,9.80
2019,11,01,14,54,9.90
2019,11,01,14,55,9.90
2019,11,01,14,56,9.90
2019,11,01,14,57,9.90
2019,11,01,14,58,9.90
2019,11,01,14,59,10.00
2019,11,01,15,00,10.00
2019,11,01,15,01,10.00
2019,11,01,15,02,10.10
2019,11,01,15,03,10.10
2019,11,01,15,04,10.10
2019,11,01,15,05,10.10
2019,11,01,15,06,10.10
2019,11,01,15,07,10.10
2019,11,01,15,08,10.10
2019,11,01,15,09,10.10
2019,11,01,15,10,10.10
2019,11,01,15,11,10.10
2019,11,01,15,12,10.10
2019,11,01,15,13,10.10
2019,11,01,15,14,10.10
2019,11,01,15,15,10.10
2019,11,01,15,16,10.10
2019,11,01,15,17,10.10
2019,11,01,15,18,10.10
2019,11,01,15,19,10.10
2019,11,01,15,20,10.10
2019,11,01,15,21,10.10
2019,11,01,15,22,10.10
2019,11,01,15,23,10.10
2019,11,01,15,24,10.10
2019,11,01,15,25,10.10
2019,11,01,15,26,10.10
2019,11,01,15,27,10.10
2019,11,01,15,28,10.10
2019,11,01,15,29,10.10
2019,11,01,15,30,10.10
2019,11,01,15,31,10.10
2019,11,01,15,32,10.10
2019,11,01,15,33,10.10
2019,11,01,15,34,10.10
2019,11,01,15,35,10.00
2019,11,01,15,36,10.00
2019,11,01,15,37,9.90
2019,11,01,15,38,9.90
2019,11,01,15,39,9.90
2019,11,01,15,40,9.80
2019,11,01,15,41,9.80
2019,11,01,15,42,9.80
2019,11,01,15,43,9.70
2019,11,01,15,44,9.70
2019,11,01,15,45,9.70
2019,11,01,15,46,9.60
2019,11,01,15,47,9.60
2019,11,01,15,48,9.60
2019,11,01,15,49,9.50
2019,11,01,15,50,9.50
2019,11,01,15,51,9.40
2019,11,01,15,52,9.40
2019,11,01,15,53,9.40
2019,11,01,15,54,9.30
2019,11,01,15,55,9.30
2019,11,01,15,56,9.30
2019,11,01,15,57,9.30
2019,11,01,15,58,9.20
2019,11,01,15,59,9.20
2019,11,01,16,00,9.20
2019,11,01,16,01,9.20
2019,11,01,16,02,9.10
2019,11,01,16,03,9.10
2019,11,01,16,04,9.10
2019,11,01,16,05,9.10
2019,11,01,16,06,9.00
2019,11,01,16,07,9.00
2019,11,01,16,08,9.00
2019,11,01,16,09,8.90
2019,11,01,16,10,8.90
2019,11,01,16,11,8.90
2019,11,01,16,12,8.80
2019,11,01,16,13,8.80
2019,11,01,16,14,8.80
2019,11,01,16,15,8.80
2019,11,01,16,16,8.80
2019,11,01,16,17,8.80
2019,11,01,16,18,8.70
2019,11,01,16,19,8.70
2019,11,01,16,20,8.70
2019,11,01,16,21,8.70
2019,11,01,16,22,8.60
2019,11,01,16,23,8.60
2019,11,01,16,24,8.60
2019,11,01,16,25,8.50
2019,11,01,16,26,8.50
2019,11,01,16,27,8.50
2019,11,01,16,28,8.40
2019,11,01,16,29,8.40
2019,11,01,16,30,8.40
2019,11,01,16,31,8.40
2019,11,01,16,32,8.30
2019,11,01,16,33,8.30
2019,11,01,16,34,8.30
2019,11,01,16,35,8.30
2019,11,01,16,36,8.30
2019,11,01,16,37,8.20
2019,11,01,16,38,8.20
2019,11,01,16,39,8.20
2019,11,01,16,40,8.10
2019,11,01,16,41,8.10
2019,11,01,16,42,8.10
2019,11,01,16,43,8.00
2019,11,01,16,44,8.00
2019,11,01,16,45,8.00
2019,11,01,16,46,7.90
2019,11,01,16,47,7.90
2019,11,01,16,48,7.90
2019,11,01,16,49,7.90
2019,11,01,16,50,7.80
2019,11,01,16,51,7.80
2019,11,01,16,52,7.80
2019,11,01,16,53,7.80
2019,11,01,16,54,7.80
2019,11,01,16,55,7.70
2019,11,01,16,56,7.70
2019,11,01,16,57,7.70
2019,11,01,16,58,7.70
2019,11,01,16,59,7.70
2019,11,01,17,00,7.60
2019,11,01,17,01,7.60
2019,11,01,17,02,7.60
2019,11,01,17,03,7.60
2019,11,01,17,04,7.50
2019,11,01,17,05,7.50
2019,11,01,17,06,7.40
2019,11,01,17,07,7.40
2019,11,01,17,08,7.40
2019,11,01,17,09,7.40
2019,11,01,17,10,7.30
2019,11,01,17,11,7.30
2019,11,01,17,12,7.30
2019,11,01,17,13,7.30
2019,11,01,17,14,7.20
2019,11,01,17,15,7.20
2019,11,01,17,16,7.20
2019,11,01,17,17,7.20
2019,11,01,17,18,7.10
2019,11,01,17,19,7.10
2019,11,01,17,20,7.00
2019,11,01,17,21,7.00
2019,11,01,17,22,7.00
2019,11,01,17,23,6.90
2019,11,01,17,24,6.90
2019,11,01,17,25,6.90
2019,11,01,17,26,6.80
2019,11,01,17,27,6.80
2019,11,01,17,28,6.80
2019,11,01,17,29,6.80
2019,11,01,17,30,6.70
2019,11,01,17,31,6.70
2019,11,01,17,32,6.70
2019,11,01,17,33,6.70
2019,11,01,17,34,6.60
2019,11,01,17,35,6.60
2019,11,01,17,36,6.60
2019,11,01,17,37,6.60
2019,11,01,17,38,6.50
2019,11,01,17,39,6.50
2019,11,01,17,40,6.40
2019,11,01,17,41,6.40
2019,11,01,17,42,6.40
2019,11,01,17,43,6.30
2019,11,01,17,44,6.30
2019,11,01,17,45,6.30
2019,11,01,17,46,6.20
2019,11,01,17,47,6.20
2019,11,01,17,48,6.20
2019,11,01,17,49,6.10
2019,11,01,17,50,6.10
2019,11,01,17,51,6.10
2019,11,01,17,52,6.10
2019,11,01,17,53,6.10
2019,11,01,17,54,6.10
2019,11,01,17,55,6.00
2019,11,01,17,56,6.00
2019,11,01,17,57,6.00
2019,11,01,17,58,5.90
2019,11,01,17,59,5.90
2019,11,01,18,00,5.90